Time,TemperatureF,DewpointF,PressureIn,WindDirection,WindDirectionDegrees,WindSpeedMPH,WindSpeedGustMPH,Humidity,HourlyPrecipIn,Conditions,Clouds,dailyrainin,SoftwareType,DateUTC
2013-10-14 00:14:00,70.7,69.0,30.10,NW,304,1.0,7.0,94,0.00,,,0.00,weatherlink.com 1.10,2013-10-14 04:14:00,
2013-10-14 00:29:00,70.5,69.0,30.10,North,354,1.0,6.0,94,0.00,,,0.00,weatherlink.com 1.10,2013-10-14 04:29:00,
2013-10-14 00:44:00,70.3,69.0,30.10,SSE,149,0.0,2.0,94,0.00,,,0.00,weatherlink.com 1.10,2013-10-14 04:44:00,
2013-10-14 00:59:00,70.3,69.0,30.10,East,84,0.0,4.0,94,0.00,,,0.00,weatherlink.com 1.10,2013-10-14 04:59:00,
2013-10-14 01:14:00,70.4,69.0,30.10,East,80,0.0,4.0,94,0.00,,,0.00,weatherlink.com 1.10,2013-10-14 05:14:00,
2013-10-14 01:29:00,70.5,69.0,30.09,WNW,299,0.0,5.0,94,0.00,,,0.00,weatherlink.com 1.10,2013-10-14 05:29:00,
2013-10-14 01:44:00,70.6,69.0,30.10,NW,319,3.0,5.0,93,0.00,,,0.00,weatherlink.com 1.10,2013-10-14 05:44:00,
2013-10-14 01:59:00,70.6,69.0,30.10,North,11,0.0,3.0,93,0.00,,,0.00,weatherlink.com 1.10,2013-10-14 05:59:00,
2013-10-14 02:14:00,70.5,68.0,30.09,NW,304,0.0,4.0,93,0.00,,,0.00,weatherlink.com 1.10,2013-10-14 06:14:00,
2013-10-14 02:29:00,70.5,68.0,30.09,SW,217,0.0,4.0,93,0.00,,,0.00,weatherlink.com 1.10,2013-10-14 06:29:00,
2013-10-14 02:44:00,70.4,68.0,30.09,NW,326,0.0,7.0,93,0.00,,,0.00,weatherlink.com 1.10,2013-10-14 06:44:00,
2013-10-14 02:59:00,70.3,68.0,30.09,North,8,5.0,7.0,93,0.00,,,0.00,weatherlink.com 1.10,2013-10-14 06:59:00,
2013-10-14 03:14:00,70.2,68.0,30.09,NW,307,0.0,4.0,93,0.00,,,0.00,weatherlink.com 1.10,2013-10-14 07:14:00,
2013-10-14 03:29:00,70.3,68.0,30.09,ESE,113,1.0,4.0,93,0.00,,,0.00,weatherlink.com 1.10,2013-10-14 07:29:00,
2013-10-14 03:44:00,70.2,68.0,30.08,West,281,0.0,2.0,93,0.00,,,0.00,weatherlink.com 1.10,2013-10-14 07:44:00,
2013-10-14 03:59:00,70.1,68.0,30.09,NW,320,1.0,3.0,93,0.00,,,0.00,weatherlink.com 1.10,2013-10-14 07:59:00,
2013-10-14 04:14:00,70.0,68.0,30.09,North,359,0.0,4.0,93,0.00,,,0.00,weatherlink.com 1.10,2013-10-14 08:14:00,
2013-10-14 04:29:00,69.9,68.0,30.09,West,278,0.0,3.0,93,0.00,,,0.00,weatherlink.com 1.10,2013-10-14 08:29:00,
2013-10-14 04:44:00,69.9,68.0,30.09,SSW,203,0.0,3.0,93,0.00,,,0.00,weatherlink.com 1.10,2013-10-14 08:44:00,
2013-10-14 04:59:00,69.9,68.0,30.09,ENE,71,1.0,2.0,93,0.00,,,0.00,weatherlink.com 1.10,2013-10-14 08:59:00,
2013-10-14 05:14:00,69.8,68.0,30.09,NNW,340,1.0,3.0,93,0.00,,,0.00,weatherlink.com 1.10,2013-10-14 09:14:00,
2013-10-14 05:29:00,69.5,68.0,30.10,WNW,301,0.0,3.0,93,0.00,,,0.00,weatherlink.com 1.10,2013-10-14 09:29:00,
2013-10-14 05:44:00,69.4,67.0,30.10,NW,316,1.0,7.0,93,0.00,,,0.00,weatherlink.com 1.10,2013-10-14 09:44:00,
2013-10-14 05:59:00,69.2,67.0,30.11,NW,320,2.0,4.0,93,0.00,,,0.00,weatherlink.com 1.10,2013-10-14 09:59:00,
2013-10-14 06:14:00,69.1,67.0,30.11,NNE,30,2.0,4.0,93,0.00,,,0.00,weatherlink.com 1.10,2013-10-14 10:14:00,
2013-10-14 06:29:00,69.0,67.0,30.11,ENE,63,1.0,5.0,93,0.00,,,0.00,weatherlink.com 1.10,2013-10-14 10:29:00,
2013-10-14 06:45:00,69.1,67.0,30.12,WNW,292,3.0,4.0,93,0.00,,,0.00,weatherlink.com 1.10,2013-10-14 10:45:00,
2013-10-14 07:00:00,68.9,67.0,30.11,NW,311,1.0,4.0,93,0.00,,,0.00,weatherlink.com 1.10,2013-10-14 11:00:00,
2013-10-14 07:15:00,68.8,67.0,30.11,NNE,21,0.0,5.0,93,0.00,,,0.00,weatherlink.com 1.10,2013-10-14 11:15:00,
2013-10-14 07:30:00,68.6,67.0,30.12,North,6,0.0,3.0,94,0.00,,,0.00,weatherlink.com 1.10,2013-10-14 11:30:00,
2013-10-14 07:45:00,68.6,67.0,30.12,NW,315,0.0,3.0,94,0.00,,,0.00,weatherlink.com 1.10,2013-10-14 11:45:00,
2013-10-14 08:00:00,68.8,67.0,30.12,NW,326,0.0,4.0,94,0.00,,,0.00,weatherlink.com 1.10,2013-10-14 12:00:00,
2013-10-14 08:15:00,69.1,67.0,30.13,SSW,205,0.0,4.0,94,0.00,,,0.00,weatherlink.com 1.10,2013-10-14 12:15:00,
2013-10-14 08:30:00,69.5,68.0,30.13,NNW,348,3.0,3.0,93,0.00,,,0.00,weatherlink.com 1.10,2013-10-14 12:30:00,
2013-10-14 08:45:00,69.6,68.0,30.14,ESE,120,0.0,5.0,93,0.00,,,0.00,weatherlink.com 1.10,2013-10-14 12:45:00,
2013-10-14 09:00:00,69.6,67.0,30.14,NE,48,0.0,3.0,92,0.00,,,0.00,weatherlink.com 1.10,2013-10-14 13:00:00,
2013-10-14 09:15:00,69.6,67.0,30.14,WNW,298,0.0,3.0,92,0.00,,,0.00,weatherlink.com 1.10,2013-10-14 13:15:00,
2013-10-14 09:30:00,69.7,67.0,30.14,NW,326,2.0,5.0,92,0.00,,,0.00,weatherlink.com 1.10,2013-10-14 13:30:00,
2013-10-14 09:45:00,69.8,67.0,30.14,NNW,340,0.0,6.0,92,0.00,,,0.00,weatherlink.com 1.10,2013-10-14 13:45:00,
2013-10-14 10:00:00,70.1,68.0,30.14,WNW,292,1.0,3.0,92,0.00,,,0.00,weatherlink.com 1.10,2013-10-14 14:00:00,
2013-10-14 10:15:00,70.4,68.0,30.14,ENE,65,1.0,3.0,91,0.00,,,0.00,weatherlink.com 1.10,2013-10-14 14:15:00,
2013-10-14 10:30:00,70.5,68.0,30.14,North,359,1.0,7.0,91,0.00,,,0.00,weatherlink.com 1.10,2013-10-14 14:30:00,
2013-10-14 10:45:00,70.5,68.0,30.14,South,189,0.0,4.0,90,0.00,,,0.00,weatherlink.com 1.10,2013-10-14 14:45:00,
2013-10-14 11:00:00,70.3,67.0,30.13,NNW,341,1.0,3.0,90,0.00,,,0.00,weatherlink.com 1.10,2013-10-14 15:00:00,
2013-10-14 11:15:00,70.3,68.0,30.13,West,281,2.0,8.0,91,0.00,,,0.00,weatherlink.com 1.10,2013-10-14 15:15:00,
2013-10-14 11:30:00,71.2,68.0,30.13,NNW,345,4.0,7.0,90,0.00,,,0.00,weatherlink.com 1.10,2013-10-14 15:30:00,
2013-10-14 11:45:00,71.4,68.0,30.13,NNW,329,1.0,10.0,89,0.00,,,0.00,weatherlink.com 1.10,2013-10-14 15:45:00,
2013-10-14 12:00:00,71.2,68.0,30.13,NW,316,1.0,8.0,88,0.00,,,0.00,weatherlink.com 1.10,2013-10-14 16:00:00,
2013-10-14 12:15:00,70.8,68.0,30.14,NE,37,2.0,6.0,89,0.00,,,0.00,weatherlink.com 1.10,2013-10-14 16:15:00,
2013-10-14 12:30:00,70.3,67.0,30.14,NE,34,2.0,5.0,90,0.00,,,0.00,weatherlink.com 1.10,2013-10-14 16:30:00,
2013-10-14 12:45:00,69.6,67.0,30.14,NNW,330,1.0,5.0,91,0.00,,,0.00,weatherlink.com 1.10,2013-10-14 16:45:00,
2013-10-14 13:00:00,69.2,67.0,30.13,NW,317,1.0,5.0,92,0.00,,,0.00,weatherlink.com 1.10,2013-10-14 17:00:00,
2013-10-14 13:15:00,69.2,67.0,30.12,NNE,14,1.0,7.0,93,0.00,,,0.00,weatherlink.com 1.10,2013-10-14 17:15:00,
2013-10-14 13:30:00,69.9,68.0,30.11,WNW,300,1.0,4.0,93,0.00,,,0.00,weatherlink.com 1.10,2013-10-14 17:30:00,
2013-10-14 13:45:00,71.2,69.0,30.11,NNW,343,2.0,6.0,91,0.00,,,0.00,weatherlink.com 1.10,2013-10-14 17:45:00,
2013-10-14 14:00:00,71.4,68.0,30.11,WNW,293,1.0,8.0,89,0.00,,,0.00,weatherlink.com 1.10,2013-10-14 18:00:00,
2013-10-14 14:15:00,71.0,67.0,30.10,South,188,4.0,5.0,88,0.00,,,0.00,weatherlink.com 1.10,2013-10-14 18:15:00,
2013-10-14 14:30:00,70.5,67.0,30.10,West,271,0.0,4.0,88,0.00,,,0.00,weatherlink.com 1.10,2013-10-14 18:30:00,
2013-10-14 14:45:00,70.7,67.0,30.10,SSW,199,2.0,5.0,88,0.00,,,0.00,weatherlink.com 1.10,2013-10-14 18:45:00,
2013-10-14 15:00:00,71.0,67.0,30.10,West,281,0.0,5.0,87,0.00,,,0.00,weatherlink.com 1.10,2013-10-14 19:00:00,
2013-10-14 15:15:00,70.3,66.0,30.10,North,356,1.0,6.0,87,0.00,,,0.00,weatherlink.com 1.10,2013-10-14 19:15:00,
2013-10-14 15:30:00,69.8,66.0,30.10,NW,308,1.0,6.0,88,0.00,,,0.00,weatherlink.com 1.10,2013-10-14 19:30:00,
2013-10-14 15:45:00,69.7,66.0,30.09,North,8,2.0,3.0,89,0.00,,,0.00,weatherlink.com 1.10,2013-10-14 19:45:00,
2013-10-14 16:00:00,70.1,67.0,30.09,North,6,0.0,5.0,88,0.00,,,0.00,weatherlink.com 1.10,2013-10-14 20:00:00,
2013-10-14 16:15:00,70.1,67.0,30.09,East,100,4.0,4.0,88,0.00,,,0.00,weatherlink.com 1.10,2013-10-14 20:15:00,
2013-10-14 16:30:00,69.9,66.0,30.09,NNE,15,1.0,5.0,88,0.00,,,0.00,weatherlink.com 1.10,2013-10-14 20:30:00,
2013-10-14 16:45:00,69.9,66.0,30.09,NW,307,1.0,5.0,88,0.00,,,0.00,weatherlink.com 1.10,2013-10-14 20:45:00,
2013-10-14 17:00:00,69.7,66.0,30.09,WNW,301,2.0,3.0,88,0.00,,,0.00,weatherlink.com 1.10,2013-10-14 21:00:00,
2013-10-14 17:15:00,69.4,66.0,30.10,NW,304,0.0,3.0,88,0.00,,,0.00,weatherlink.com 1.10,2013-10-14 21:15:00,
2013-10-14 17:30:00,68.9,65.0,30.10,ESE,120,1.0,5.0,88,0.00,,,0.00,weatherlink.com 1.10,2013-10-14 21:30:00,
2013-10-14 17:45:00,68.5,65.0,30.10,SSW,203,3.0,5.0,89,0.00,,,0.00,weatherlink.com 1.10,2013-10-14 21:45:00,
2013-10-14 18:00:00,68.3,65.0,30.10,NNW,332,1.0,5.0,89,0.00,,,0.00,weatherlink.com 1.10,2013-10-14 22:00:00,
2013-10-14 18:15:00,68.1,65.0,30.10,NNW,332,1.0,6.0,89,0.00,,,0.00,weatherlink.com 1.10,2013-10-14 22:15:00,
2013-10-14 18:30:00,67.9,65.0,30.11,NNE,18,0.0,4.0,89,0.00,,,0.00,weatherlink.com 1.10,2013-10-14 22:30:00,
2013-10-14 18:45:00,67.8,65.0,30.12,NE,51,0.0,3.0,89,0.00,,,0.00,weatherlink.com 1.10,2013-10-14 22:45:00,
2013-10-14 19:00:00,67.7,64.0,30.12,WNW,290,2.0,4.0,89,0.00,,,0.00,weatherlink.com 1.10,2013-10-14 23:00:00,
2013-10-14 19:15:00,67.6,64.0,30.12,ESE,120,0.0,4.0,89,0.00,,,0.00,weatherlink.com 1.10,2013-10-14 23:15:00,
2013-10-14 19:30:00,67.6,64.0,30.13,WNW,288,2.0,6.0,89,0.00,,,0.00,weatherlink.com 1.10,2013-10-14 23:30:00,
2013-10-14 19:45:00,67.4,64.0,30.13,NNW,330,1.0,4.0,89,0.00,,,0.00,weatherlink.com 1.10,2013-10-14 23:45:00,
2013-10-14 20:00:00,67.3,64.0,30.13,West,264,0.0,5.0,89,0.00,,,0.00,weatherlink.com 1.10,2013-10-15 00:00:00,
2013-10-14 20:15:00,67.1,64.0,30.13,NW,316,2.0,5.0,89,0.00,,,0.00,weatherlink.com 1.10,2013-10-15 00:15:00,
2013-10-14 20:30:00,66.9,63.0,30.12,WNW,299,1.0,7.0,88,0.00,,,0.00,weatherlink.com 1.10,2013-10-15 00:30:00,
2013-10-14 20:45:00,66.7,63.0,30.12,WNW,284,1.0,6.0,89,0.00,,,0.00,weatherlink.com 1.10,2013-10-15 00:45:00,
2013-10-14 21:00:00,66.4,63.0,30.12,NW,312,1.0,5.0,89,0.00,,,0.00,weatherlink.com 1.10,2013-10-15 01:00:00,
2013-10-14 21:15:00,66.1,63.0,30.12,NNE,18,0.0,3.0,89,0.00,,,0.00,weatherlink.com 1.10,2013-10-15 01:15:00,
2013-10-14 21:30:00,65.8,63.0,30.11,NNW,334,1.0,3.0,90,0.00,,,0.00,weatherlink.com 1.10,2013-10-15 01:30:00,
2013-10-14 21:45:00,65.6,63.0,30.11,WNW,297,1.0,4.0,90,0.00,,,0.00,weatherlink.com 1.10,2013-10-15 01:45:00,
2013-10-14 22:00:00,65.5,63.0,30.12,North,358,1.0,5.0,91,0.00,,,0.00,weatherlink.com 1.10,2013-10-15 02:00:00,
2013-10-14 22:15:00,65.5,63.0,30.12,WNW,288,0.0,3.0,91,0.00,,,0.00,weatherlink.com 1.10,2013-10-15 02:15:00,
2013-10-14 22:30:00,65.5,63.0,30.12,North,352,0.0,3.0,91,0.00,,,0.00,weatherlink.com 1.10,2013-10-15 02:30:00,
2013-10-14 22:45:00,65.5,63.0,30.12,NE,43,3.0,4.0,91,0.00,,,0.00,weatherlink.com 1.10,2013-10-15 02:45:00,
2013-10-14 23:01:00,65.7,63.0,30.12,NW,309,1.0,3.0,91,0.00,,,0.00,weatherlink.com 1.10,2013-10-15 03:01:00,
2013-10-14 23:16:00,65.8,63.0,30.12,WNW,284,0.0,4.0,91,0.00,,,0.00,weatherlink.com 1.10,2013-10-15 03:16:00,
2013-10-14 23:31:00,65.7,63.0,30.12,NW,323,3.0,6.0,91,0.00,,,0.00,weatherlink.com 1.10,2013-10-15 03:31:00,
2013-10-14 23:46:00,65.6,63.0,30.11,NW,309,0.0,3.0,91,0.00,,,0.00,weatherlink.com 1.10,2013-10-15 03:46:00,